COSMOS 2251 DEB, 33805

Orbit data source: Space-Track

COSMOS 2251 DEB, 33805 is space debris in LEO originally from a launch on Wed, 16 Jun 1993 UTC launched from the Plesetsk Missile And Space Complex (PKMTR). The debris from Iridium 33, an American commercial communications satellite, has been tracked extensively since its accidental collision with the defunct Russian satellite Cosmos 2251 in 2009. This event, occurring at high speed in low Earth orbit (LEO), generated thousands of pieces of space debris, significantly increasing the risk of further collisions. The Iridium 33 debris cloud has impacted space traffic management and orbital debris mitigation strategies, making it a subject of ongoing study in space situational awareness.

Loading next visibility...
Identifier
33805, 1993-036AW
Orbit
LEO
Country
Flag of CISCIS
Related business
Manufacturer
Unknown
Mission
Spacecraft
Bus & Motor
Unknown
Mass
Unknown
Launch date (UTC)
1993-06-16 (33 years ago)
Launch vehicle
Unknown
Launch site
Plesetsk Missile And Space Complex (PKMTR)
Object type
Payload
Rocket body
Debris
Shape & HBR
Unknown shape, 0.3 m
Radar Cross Section
Small (<0.1 m²)

Expand to show TLE details & history
Last TLE update: 10 hours ago

TLE from 10 hours ago
0 COSMOS 2251 DEB
1 33805U 93036AW  26034.17737254  .00001027  00000-0  22441-3 0  9997
2 33805  74.0287 211.5655 0060671  25.2546 335.1562 14.58006182899914
Epoch: 2026-02-03T04:15Z
TLE epoch observation values (Epoch: 2026-02-03T04:15:24.987Z)
Latitude
-0.00005°
Longitude
14.34932°
Altitude
663.329 km
Speed
7.546 km/s
True Right ascension
14h 06m 15s
True Declination
0° 00' 00"
Sunlit
Object was in daylight at epoch
Visualization orbit readout
Latitude
Unknown
Longitude
Unknown
Altitude
Unknown
Speed
Unknown
Apparent Right ascension
Unknown
Apparent Declination
Unknown
Sunlit
N/A
Visualization observer readout
Local Sidereal Time
16:33:18
Azimuth
Unknown
Elevation
Unknown
Doppler factor
Unknown
Orbital elements
Apogee altitude
740.146 km
Perigee altitude
654.293 km
Semi-major axis
7,075.356 km
Eccentricity
0.00607
Inclination
74.0287°
RAAN
211.5655°
Arg. of periapsis
25.2546°
True anomaly
334.86208°
Mean anomaly
335.1562°
Eccentric anomaly
335.00934°
Mean motion
3.64687 °/min
Orbital period
98.71 mins
BSTAR
0.00022441
Loading maneuver chart data...
Computing Atmospheric mass density...
Loading historical data...
Loading historical data...
Loading historical data...
Loading historical data...
Loading historical data...
Loading historical data...
Loading historical data...

Documentation

Showing up to 5 results
|